User: anonymous   Login
Location: Obersdorf
(47.4079°N, 10.2781°E)
Time: 11:17:20
(UTC+02:00)
Language:

AO-109 - Orbit

View from above orbital plane
View from above orbital plane
View from above satellite
View from above satellite

Ground track
Ground track

The orbit data is extracted from the following two-line orbital elements,

1 47311U 21002C   22276.57762238  .00014709  00000-0  55226-3 0  9994
2 47311  60.6856 314.7606 0034906  47.1936 313.2078 15.26908182 94962
Epoch (UTC): 03 October 2022 13:51:46
Eccentricity: 0.0034906
inclination: 60.6856°
perigee height: 461 km
apogee height: 509 km
right ascension of ascending node: 314.7606°
argument of perigee: 47.1936°
revolutions per day: 15.26908182
mean anomaly at epoch: 313.2078°
orbit number at epoch: 9496

The dashed part of the orbit path shows where the satellite is in the earth's shadow,  

DLR